This is the latest recevied weather packets stored in our database for station/object WB7AAV. If no packets are shown the sender has not sent any weather packets the latest 10 day(s).
| Time | Temp. | Humidity | Pressure | Rain* | Wind** | Luminosity | Snow |
|---|---|---|---|---|---|---|---|
| 1777561249 | 2.78° C | 91% | 1021.2 hPa | 1.78 mm | - | - | - |
| 1777560950 | 2.78° C | 93% | 1021.2 hPa | 1.78 mm | - | - | - |
| 1777558845 | 2.22° C | 94% | 1021.3 hPa | 1.27 mm | - | - | - |
| 1777556746 | 1.67° C | 95% | 1021.2 hPa | 0.76 mm | - | - | - |
| 1777556147 | 1.11° C | 95% | 1021.1 hPa | 0.76 mm | - | - | - |
| 1777555845 | 1.11° C | 95% | 1021.1 hPa | 0.76 mm | - | - | - |
| 1777555545 | 0.56° C | 95% | 1021.1 hPa | 0.51 mm | - | - | - |
| 1777554344 | 0.56° C | 95% | 1021 hPa | 0.76 mm | - | - | - |
| 1777554054 | 0.56° C | 95% | 1020.9 hPa | 0.76 mm | - | - | - |
| 1777551939 | 0.56° C | 94% | 1020.9 hPa | 0.76 mm | - | - | - |
| 1777551039 | 0.56° C | 94% | 1020.6 hPa | 0.51 mm | - | - | - |
| 1777549317 | 0.56° C | 94% | 1020.9 hPa | 0 mm | - | - | - |
| 1777548642 | 0.56° C | 93% | 1020.7 hPa | 0.25 mm | - | - | - |
| 1777547738 | 0.56° C | 93% | 1020.7 hPa | 0.51 mm | - | - | - |
| 1777546835 | 0.56° C | 93% | 1020.9 hPa | 1.02 mm | - | - | - |
| 1777545937 | 0.56° C | 93% | 1020.9 hPa | 1.52 mm | - | - | - |
| 1777543617 | 1.67° C | 92% | 1020.9 hPa | 2.54 mm | - | - | - |
| 1777542938 | 2.22° C | 92% | 1021 hPa | 2.29 mm | - | - | - |
| 1777541429 | 2.22° C | 93% | 1020.9 hPa | 1.78 mm | - | - | - |
| 1777541129 | 2.22° C | 93% | 1020.9 hPa | 1.78 mm | - | - | - |
| 1777540830 | 2.78° C | 93% | 1020.9 hPa | 1.78 mm | - | - | - |
| 1777540528 | 2.78° C | 93% | 1020.9 hPa | 1.52 mm | - | - | - |
| 1777540228 | 2.22° C | 93% | 1020.7 hPa | 1.27 mm | - | - | - |
| 1777539928 | 2.22° C | 92% | 1020.7 hPa | 1.52 mm | - | - | - |
| 1777539626 | 2.78° C | 93% | 1020.7 hPa | 1.27 mm | - | - | - |
* Rain latest hour (hover to see other rain measurements)
** Current wind speed in m/s (hover to see current wind gust speed)